sat.trackr.live / text

‹ back to catalog

STARLINK-4020

NORAD 52703 · 2022-053AZ

PAYLOAD ACTIVE UNKNOWN

§ Identity

Operator
Country
US
Launch date
2022-05-18
Launch site
AFETR
Launch vehicle
Mass (kg)
RCS (m²)

Purposes: comms

External: N2YO · Heavens-Above · Gunter

§ Orbital elements

Epoch: 2026-05-24T23:35:51.565344Z

Period
95.44 min
Inclination
53.2128°
Eccentricity
0.0001165
Mean motion
15.08840060 rev/d
Perigee alt
538.9 km
Apogee alt
540.5 km
Semi-major
6,917.9 km
B*
-7.3223e-5
RAAN
151.6391°
Arg perigee
69.6132°
Mean anomaly
290.4985°
Rev number
22,155

§ Raw data

STARLINK-40201 52703U 22053AZ  26144.98323571 -.00001453  00000+0 -73223-4 0  99992 52703  53.2128 151.6391 0001165  69.6132 290.4985 15.08840060221550

JSON: /api/v1/satellites/52703 · /tle

For live sub-satellite position, see the globe view (requires WebGL).

§ Visibility from observer

Set your observer location to see the next 7 days of passes ≥ 10°. The values pass through the URL so the page stays shareable.

No JS? Fill the form by hand. The geolocation button needs JavaScript.